KF6ILA Weather Reports


time (UTC)temp
C
wind
direction
speed
KPH
gust
KPH
rain 1hr
cm
rain 24hr
cm
rain mn
cm
humidity
%
barometer
mb
20260509061359 17 251 24.1 33.8 0.00 0.00 0.00 31 1014.5
20260509055908 17 257 22.5 32.2 0.00 0.00 0.00 28 1014.6
20260509054417 17 254 22.5 33.8 0.00 0.00 0.00 27 1014.7
20260509053423 17 254 24.1 32.2 0.00 0.00 0.00 27 1014.8
20260509052430 17 254 22.5 32.2 0.00 0.00 0.00 26 1014.9
20260509051435 18 255 24.1 35.4 0.00 0.00 0.00 26 1014.9
20260509045447 17 252 22.5 33.8 0.00 0.00 0.00 26 1014.9
20260509044453 17 257 22.5 35.4 0.00 0.00 0.00 27 1014.9
20260509043459 17 258 25.7 33.8 0.00 0.00 0.00 29 1014.9
20260509043002 17 261 22.5 33.8 0.00 0.00 0.00 30 1014.9
20260509042008 17 258 22.5 32.2 0.00 0.00 0.00 31 1014.7
20260509041014 17 258 20.9 33.8 0.00 0.00 0.00 33 1014.6
20260509040517 17 261 20.9 33.8 0.00 0.00 0.00 34 1014.5
20260509040020 17 261 20.9 32.2 0.00 0.00 0.00 37 1014.5
20260509035523 17 261 20.9 32.2 0.00 0.00 0.00 39 1014.5
20260509033038 17 261 20.9 33.8 0.00 0.00 0.00 45 1014.1
20260509032541 17 259 22.5 33.8 0.00 0.00 0.00 46 1014.2
20260509032044 17 262 20.9 32.2 0.00 0.00 0.00 47 1014.2
20260509031547 17 260 24.1 32.2 0.00 0.00 0.00 48 1014.0
20260509025102 17 263 20.9 33.8 0.00 0.00 0.00 49 1014.7
20260509024108 17 261 22.5 32.2 0.00 0.00 0.00 49 1014.7
20260509023611 17 262 22.5 32.2 0.00 0.00 0.00 50 1014.7
20260509022617 18 260 22.5 32.2 0.00 0.00 0.00 50 1014.6
20260509020629 19 260 19.3 30.6 0.00 0.00 0.00 51 1014.7
20260509014144 20 269 24.1 37.0 0.00 0.00 0.00 48 1014.7
20260509013150 20 263 25.7 37.0 0.00 0.00 0.00 46 1014.7
20260509012156 21 262 20.9 33.8 0.00 0.00 0.00 43 1014.8
20260509011659 21 269 24.1 33.8 0.00 0.00 0.00 41 1014.7
20260509011202 21 269 17.7 35.4 0.00 0.00 0.00 42 1014.7
20260509010705 21 268 24.1 37.0 0.00 0.00 0.00 40 1014.7
20260509005711 21 280 24.1 45.1 0.00 0.00 0.00 38 1014.7
20260509004220 22 268 30.6 43.5 0.00 0.00 0.00 35 1013.9
20260509003723 22 283 27.4 43.5 0.00 0.00 0.00 33 1014.1
20260509000741 23 283 30.6 41.8 0.00 0.00 0.00 24 1015.1
20260509000244 23 290 20.9 41.8 0.00 0.00 0.00 26 1015.2
20260508235747 23 281 25.7 45.1 0.00 0.00 0.00 27 1015.2
20260508234256 23 273 22.5 38.6 0.00 0.00 0.00 29 1014.3
20260508231811 23 260 20.9 38.6 0.00 0.00 0.00 32 1015.4
20260508230320 23 277 22.5 38.6 0.00 0.00 0.00 35 1015.3
20260508225823 23 269 19.3 41.8 0.00 0.00 0.00 36 1015.4
20260508223338 23 253 29.0 43.5 0.00 0.00 0.00 37 1015.7
20260508215859 24 269 22.5 38.6 0.00 0.00 0.00 37 1015.9
20260508212917 24 273 25.7 38.6 0.00 0.00 0.00 37 1016.2
20260508212420 24 276 20.9 0.0 0.00 0.00 0.00 36 1016.2
20260508210432 23 285 25.7 40.2 0.00 0.00 0.00 39 1016.4
20260508202953 23 291 27.4 41.8 0.00 0.00 0.00 37 1016.2
20260508202456 23 284 20.9 40.2 0.00 0.00 0.00 40 1016.4
20260508201005 23 287 20.9 38.6 0.00 0.00 0.00 40 1016.5
20260508194520 23 283 19.3 41.8 0.00 0.00 0.00 43 1016.5
20260508194023 23 288 19.3 41.8 0.00 0.00 0.00 42 1016.5
20260508191538 23 281 24.1 35.4 0.00 0.00 0.00 39 1016.8
20260508185550 23 283 25.7 37.0 0.00 0.00 0.00 39 1016.7
20260508183602 23 273 17.7 40.2 0.00 0.00 0.00 40 1016.8
20260508183105 23 281 17.7 32.2 0.00 0.00 0.00 41 1016.8
20260508182111 23 292 14.5 33.8 0.00 0.00 0.00 40 1016.8
20260508181614 23 277 19.3 35.4 0.00 0.00 0.00 39 1016.8
20260508172148 22 280 22.5 32.2 0.00 0.00 0.00 39 1016.7
20260508170656 22 275 20.9 33.8 0.00 0.00 0.00 37 1016.6
20260508165702 22 282 14.5 37.0 0.00 0.00 0.00 38 1016.7
20260508165205 22 281 16.1 29.0 0.00 0.00 0.00 40 1016.6
20260508163714 22 262 16.1 27.4 0.00 0.00 0.00 42 1016.6
20260508163217 22 257 16.1 25.7 0.00 0.00 0.00 42 1016.7
20260508160732 21 266 14.5 24.1 0.00 0.00 0.00 40 1016.6
20260508160235 21 281 16.1 20.9 0.00 0.00 0.00 40 1016.7
20260508155241 21 274 14.5 24.1 0.00 0.00 0.00 41 1016.6
20260508154744 21 266 12.9 22.5 0.00 0.00 0.00 42 1016.7
20260508150311 20 265 12.9 25.7 0.00 0.00 0.00 37 1016.5
20260508145814 20 269 12.9 25.7 0.00 0.00 0.00 37 1016.4
20260508142832 19 288 9.7 24.1 0.00 0.00 0.00 40 1016.3
20260508135850 17 272 12.9 24.1 0.00 0.00 0.00 45 1015.3
20260508135353 17 284 14.5 20.9 0.00 0.00 0.00 45 1015.4
20260508134856 17 272 14.5 25.7 0.00 0.00 0.00 44 1015.2
20260508134400 17 273 14.5 25.7 0.00 0.00 0.00 45 1015.1
20260508133902 17 272 16.1 25.7 0.00 0.00 0.00 46 1015.1
20260508133405 17 281 14.5 25.7 0.00 0.00 0.00 47 1015.1
20260508131417 16 275 17.7 25.7 0.00 0.00 0.00 49 1015.0
20260508130920 16 271 16.1 27.4 0.00 0.00 0.00 50 1015.0
20260508130423 16 271 14.5 32.2 0.00 0.00 0.00 50 1014.9
20260508125926 16 269 16.1 32.2 0.00 0.00 0.00 50 1014.8
20260508124932 16 272 16.1 27.4 0.00 0.00 0.00 53 1014.8
20260508120459 16 270 16.1 25.7 0.00 0.00 0.00 51 1014.7
20260508120002 16 275 12.9 24.1 0.00 0.00 0.00 50 1014.7
20260508113517 16 279 16.1 25.7 0.00 0.00 0.00 51 1014.7
20260508112026 16 278 14.5 22.5 0.00 0.00 0.00 51 1014.7
20260508111529 16 277 11.3 20.9 0.00 0.00 0.00 51 1014.7
20260508110038 16 272 11.3 25.7 0.00 0.00 0.00 51 1014.8
20260508104050 16 257 16.1 20.9 0.00 0.00 0.00 51 1014.7
20260508103553 16 263 11.3 24.1 0.00 0.00 0.00 51 1014.8
20260508102559 16 253 14.5 20.9 0.00 0.00 0.00 50 1014.9
20260508102102 16 262 12.9 20.9 0.00 0.00 0.00 51 1015.0
20260508101605 16 272 12.9 20.9 0.00 0.00 0.00 50 1015.0
20260508101108 16 264 12.9 22.5 0.00 0.00 0.00 50 1015.1
20260508094623 16 261 12.9 22.5 0.00 0.00 0.00 51 1015.2
20260508094126 16 270 11.3 22.5 0.00 0.00 0.00 50 1015.3
20260508093132 16 262 12.9 24.1 0.00 0.00 0.00 49 1015.3
20260508090150 16 246 20.9 27.4 0.00 0.00 0.00 48 1015.5
20260508084659 17 257 14.5 24.1 0.00 0.00 0.00 47 1015.4
20260508084202 17 259 16.1 25.7 0.00 0.00 0.00 46 1015.5
20260508082711 17 261 19.3 29.0 0.00 0.00 0.00 44 1015.6
20260508081717 17 254 16.1 27.4 0.00 0.00 0.00 46 1015.8
20260508081220 17 252 17.7 27.4 0.00 0.00 0.00 46 1015.8
20260508075729 17 268 14.5 24.1 0.00 0.00 0.00 46 1015.9
20260508074735 17 258 16.1 27.4 0.00 0.00 0.00 47 1016.0
20260508073741 17 256 19.3 27.4 0.00 0.00 0.00 47 1016.1
20260508073244 17 258 19.3 27.4 0.00 0.00 0.00 47 1016.2
20260508071256 17 263 20.9 30.6 0.00 0.00 0.00 49 1016.1
20260508070302 17 256 17.7 29.0 0.00 0.00 0.00 50 1016.0
20260508065805 17 261 17.7 25.7 0.00 0.00 0.00 50 1016.1
20260508065308 16 267 16.1 25.7 0.00 0.00 0.00 52 1016.1
20260508064811 16 257 19.3 27.4 0.00 0.00 0.00 53 1016.1
20260508062823 16 256 16.1 25.7 0.00 0.00 0.00 51 1016.3
20260508062326 16 251 17.7 27.4 0.00 0.00 0.00 51 1016.2
20260508061829 16 255 17.7 27.4 0.00 0.00 0.00 51 1016.2